timestamp,surface_pressure_avg,surface_temp_avg,battery_voltage,lat,long
2022-10-31 00:09:01+00:00,246.7464,12.9,12.49,47.84626,-54.09684
2022-10-31 00:19:01+00:00,247.7398,12.9,12.41,47.84626,-54.09684
2022-10-31 00:29:01+00:00,252.7931,12.9,12.41,47.84626,-54.09684
2022-10-31 00:39:01+00:00,259.9381,12.89,12.41,47.84626,-54.09684
2022-10-31 00:49:01+00:00,262.6348,12.89,12.41,47.84626,-54.09684
2022-10-31 00:59:01+00:00,263.693,12.88,12.41,47.84626,-54.09684
2022-10-31 01:09:01+00:00,269.8447,12.87,12.41,47.84626,-54.09684
2022-10-31 01:19:00+00:00,279.9798,12.85,12.41,47.84626,-54.09684
2022-10-31 01:29:00+00:00,284.6797,12.8,12.41,47.84626,-54.09684
2022-10-31 01:39:00+00:00,287.3747,12.8,12.41,47.84626,-54.09684
2022-10-31 01:49:00+00:00,295.3914,12.8,12.41,47.84626,-54.09684
2022-10-31 01:59:00+00:00,304.7713,12.8,12.41,47.84626,-54.09684
2022-10-31 02:09:00+00:00,308.8147,12.8,12.41,47.84626,-54.09684
2022-10-31 02:19:00+00:00,312.2014,12.8,12.41,47.84626,-54.09684
2022-10-31 02:29:00+00:00,319.258,12.79,12.41,47.84626,-54.09684
2022-10-31 02:39:00+00:00,322.858,12.79,12.41,47.84626,-54.09684
2022-10-31 02:49:00+00:00,322.933,12.78,12.41,47.84626,-54.09684
2022-10-31 02:59:00+00:00,325.7079,12.79,12.41,47.84626,-54.09684
2022-10-31 03:09:00+00:00,328.0764,12.8,12.41,47.84626,-54.09684
2022-10-31 03:19:00+00:00,327.0329,12.79,12.41,47.84626,-54.09684
2022-10-31 03:29:00+00:00,329.6263,12.78,12.41,47.84626,-54.09684
2022-10-31 03:39:00+00:00,330.9363,12.76,12.41,47.84626,-54.09684
2022-10-31 03:49:00+00:00,330.3113,12.78,12.41,47.84626,-54.09684
2022-10-31 03:59:00+00:00,327.1297,12.79,12.41,47.84626,-54.09684
2022-10-31 04:09:00+00:00,327.8013,12.8,12.41,47.84626,-54.09684
2022-10-31 04:19:00+00:00,327.5597,12.79,12.41,47.84626,-54.09684
2022-10-31 04:29:00+00:00,326.4813,12.8,12.41,47.84626,-54.09684
2022-10-31 04:39:00+00:00,329.9579,12.8,12.41,47.84626,-54.09684
2022-10-31 04:49:00+00:00,331.4147,12.8,12.41,47.84626,-54.09684
2022-10-31 04:59:00+00:00,327.2912,12.8,12.41,47.84626,-54.09684
2022-10-31 05:09:00+00:00,324.2897,12.8,12.41,47.84626,-54.09684
2022-10-31 05:19:00+00:00,323.8314,12.8,12.41,47.84626,-54.09684
2022-10-31 05:29:00+00:00,323.4998,12.8,12.41,47.84626,-54.09684
2022-10-31 05:39:00+00:00,319.1764,12.8,12.41,47.84626,-54.09684
2022-10-31 05:49:00+00:00,315.0164,12.8,12.41,47.84626,-54.09684
2022-10-31 05:59:00+00:00,307.9646,12.8,12.41,47.84626,-54.09684
2022-10-31 06:09:00+00:00,300.938,12.8,12.41,47.84626,-54.09684
2022-10-31 06:19:00+00:00,293.0897,12.8,12.41,47.84626,-54.09684
2022-10-31 06:29:00+00:00,287.3364,12.8,12.41,47.84626,-54.09684
2022-10-31 06:39:00+00:00,280.223,12.8,12.41,47.84626,-54.09684
2022-10-31 06:49:00+00:00,271.4881,12.8,12.41,47.84626,-54.09684
2022-10-31 06:59:00+00:00,262.6397,12.8,12.41,47.84626,-54.09684
2022-10-31 07:09:00+00:00,257.2231,12.8,12.41,47.84626,-54.09684
2022-10-31 07:19:00+00:00,250.8881,12.8,12.41,47.84626,-54.09684
2022-10-31 07:29:00+00:00,242.8847,12.79,12.41,47.84626,-54.09684
2022-10-31 07:39:00+00:00,237.4464,12.79,12.41,47.84626,-54.09684
2022-10-31 07:49:00+00:00,233.0881,12.79,12.41,47.84626,-54.09684
2022-10-31 07:59:00+00:00,227.5214,12.79,12.41,47.84626,-54.09684
2022-10-31 08:09:00+00:00,223.3964,12.79,12.41,47.84626,-54.09684
2022-10-31 08:19:00+00:00,222.3581,12.79,12.41,47.84626,-54.09684
2022-10-31 08:29:00+00:00,221.5848,12.78,12.41,47.84626,-54.09684
2022-10-31 08:39:00+00:00,219.4464,12.77,12.41,47.84626,-54.09684
2022-10-31 08:49:00+00:00,219.5597,12.72,12.41,47.84626,-54.09684
2022-10-31 08:59:00+00:00,219.6998,12.7,12.41,47.84626,-54.09684
2022-10-31 09:09:00+00:00,217.6981,12.7,12.41,47.84626,-54.09684
2022-10-31 09:19:00+00:00,218.4981,12.7,12.41,47.84626,-54.09684
2022-10-31 09:29:00+00:00,221.6848,12.69,12.41,47.84626,-54.09684
2022-10-31 09:39:00+00:00,222.173,12.68,12.41,47.84626,-54.09684
2022-10-31 09:49:00+00:00,220.8031,12.64,12.41,47.84626,-54.09684
2022-10-31 09:59:00+00:00,224.3947,12.62,12.41,47.84626,-54.09684
2022-10-31 10:09:00+00:00,226.6164,12.6,12.41,47.84626,-54.09684
2022-10-31 10:19:00+00:00,227.2164,12.6,12.41,47.84626,-54.09684
2022-10-31 10:29:00+00:00,229.8948,12.5,12.41,47.84626,-54.09684
2022-10-31 10:39:00+00:00,234.1347,12.5,12.41,47.84626,-54.09684
2022-10-31 10:49:00+00:00,235.7914,12.5,12.41,47.84626,-54.09684
2022-10-31 10:59:00+00:00,237.1331,12.57,12.41,47.84626,-54.09684
2022-10-31 11:09:00+00:00,239.3564,12.49,12.41,47.84626,-54.09684
2022-10-31 11:19:00+00:00,241.9448,11.89,13.37,47.84626,-54.09684
2022-10-31 11:29:00+00:00,243.4931,11.32,13.37,47.84626,-54.09684
2022-10-31 11:39:00+00:00,246.3948,11.6,13.37,47.84626,-54.09684
2022-10-31 11:49:00+00:00,248.5181,11.92,13.37,47.84626,-54.09684
2022-10-31 11:59:00+00:00,250.3698,12.06,13.37,47.84626,-54.09684
2022-10-31 12:09:00+00:00,254.0448,11.67,13.37,47.84626,-54.09684
2022-10-31 12:19:00+00:00,260.6464,12.31,14.32,47.84626,-54.09684
2022-10-31 12:29:00+00:00,264.1215,12.64,14.32,47.84626,-54.09684
2022-10-31 12:39:00+00:00,268.2814,12.7,14.32,47.84626,-54.09684
2022-10-31 12:49:00+00:00,274.6697,12.7,14.32,47.84626,-54.09684
2022-10-31 12:59:00+00:00,281.6481,12.7,14.32,47.84626,-54.09684
2022-10-31 13:09:00+00:00,286.9547,12.7,14.32,47.84626,-54.09684
2022-10-31 13:19:00+00:00,294.618,12.7,14.64,47.84626,-54.09684
2022-10-31 13:29:00+00:00,299.388,12.7,14.64,47.84626,-54.09684
2022-10-31 13:39:00+00:00,303.6814,12.7,14.64,47.84626,-54.09684
2022-10-31 13:49:00+00:00,313.5029,12.75,14.64,47.84626,-54.09684
2022-10-31 13:59:00+00:00,323.5046,12.7,14.64,47.84626,-54.09684
2022-10-31 14:09:00+00:00,327.8029,12.7,14.64,47.84626,-54.09684
2022-10-31 14:19:00+00:00,330.1880000000001,12.72,14.72,47.84626,-54.09684
2022-10-31 14:29:00+00:00,338.9363,12.74,14.72,47.84626,-54.09684
2022-10-31 14:39:00+00:00,344.4246,12.7,14.72,47.84626,-54.09684
2022-10-31 14:49:00+00:00,344.6012,12.77,14.72,47.84626,-54.09684
2022-10-31 14:59:00+00:00,349.7879,12.79,14.72,47.84626,-54.09684
2022-10-31 15:09:00+00:00,358.6062,12.7,14.72,47.84626,-54.09684
2022-10-31 15:19:00+00:00,360.73800000000006,12.7,13.21,47.84626,-54.09684
2022-10-31 15:29:00+00:00,361.1929,12.7,13.21,47.84626,-54.09684
2022-10-31 15:39:00+00:00,366.3179,12.7,13.21,47.84626,-54.09684
2022-10-31 15:49:00+00:00,370.3096,12.73,13.21,47.84626,-54.09684
2022-10-31 15:59:00+00:00,366.2213,12.73,13.21,47.84626,-54.09684
2022-10-31 16:09:00+00:00,368.5964,12.75,13.21,47.84626,-54.09684
2022-10-31 16:19:01+00:00,373.9929,12.74,13.92,47.84626,-54.09684
2022-10-31 16:29:01+00:00,372.8445,12.73,13.92,47.84626,-54.09684
2022-10-31 16:39:01+00:00,369.0696,12.76,13.92,47.84626,-54.09684
2022-10-31 16:49:01+00:00,369.478,12.77,13.92,47.84626,-54.09684
2022-10-31 16:59:01+00:00,368.5231,12.76,13.92,47.84626,-54.09684
2022-10-31 17:09:01+00:00,363.0396,12.76,13.92,47.84626,-54.09684
2022-10-31 17:19:00+00:00,361.5046,12.76,13.29,47.84626,-54.09684
2022-10-31 17:29:00+00:00,361.3929,12.74,13.29,47.84626,-54.09684
2022-10-31 17:39:00+00:00,354.1696,12.7,13.29,47.84626,-54.09684
2022-10-31 17:49:00+00:00,348.5779,12.7,13.29,47.84626,-54.09684
2022-10-31 17:59:00+00:00,347.19300000000015,12.7,13.29,47.84626,-54.09684
2022-10-31 18:09:00+00:00,341.9613,12.69,13.29,47.84626,-54.09684
2022-10-31 18:19:01+00:00,333.2313,12.64,12.97,47.84626,-54.09684
2022-10-31 18:29:01+00:00,326.133,12.6,12.97,47.84626,-54.09684
2022-10-31 18:39:01+00:00,319.533,12.6,12.97,47.84626,-54.09684
2022-10-31 18:49:01+00:00,311.7131,12.6,12.97,47.84626,-54.09684
2022-10-31 18:59:01+00:00,304.4097,12.6,12.97,47.84626,-54.09684
2022-10-31 19:09:01+00:00,299.053,12.6,12.97,47.84626,-54.09684
2022-10-31 19:19:00+00:00,290.7563,12.6,12.65,47.84626,-54.09684
2022-10-31 19:29:00+00:00,282.5547,12.6,12.65,47.84626,-54.09684
2022-10-31 19:39:00+00:00,278.8397,12.6,12.65,47.84626,-54.09684
2022-10-31 19:49:00+00:00,273.4098,12.6,12.65,47.84626,-54.09684
2022-10-31 19:59:00+00:00,264.1381,12.6,12.65,47.84626,-54.09684
2022-10-31 20:09:00+00:00,257.7947,12.6,12.65,47.84626,-54.09684
2022-10-31 20:19:01+00:00,252.2981,12.6,12.57,47.84626,-54.09684
2022-10-31 20:29:01+00:00,246.6831,12.6,12.57,47.84626,-54.09684
2022-10-31 20:39:01+00:00,242.3881,12.6,12.57,47.84626,-54.09684
2022-10-31 20:49:01+00:00,240.2897,12.6,12.57,47.84626,-54.09684
2022-10-31 20:59:01+00:00,236.5681,12.6,12.57,47.84626,-54.09684
2022-10-31 21:09:01+00:00,233.8597,12.6,12.57,47.84626,-54.09684
2022-10-31 21:19:00+00:00,231.5181,12.6,12.57,47.84626,-54.09684
2022-10-31 21:29:00+00:00,229.1448,12.6,12.57,47.84626,-54.09684
2022-10-31 21:39:00+00:00,229.4781,12.6,12.57,47.84626,-54.09684
2022-10-31 21:49:00+00:00,229.7347,12.6,12.57,47.84626,-54.09684
2022-10-31 21:59:00+00:00,227.4164,12.6,12.57,47.84626,-54.09684
2022-10-31 22:09:00+00:00,226.4981,12.6,12.57,47.84626,-54.09684
2022-10-31 22:19:00+00:00,229.1197,12.6,12.49,47.84626,-54.09684
2022-10-31 22:29:00+00:00,230.3231,12.6,12.49,47.84626,-54.09684
2022-10-31 22:39:00+00:00,229.7064,12.6,12.49,47.84626,-54.09684
2022-10-31 22:49:00+00:00,231.7397,12.6,12.49,47.84626,-54.09684
2022-10-31 22:59:00+00:00,235.5481,12.6,12.49,47.84626,-54.09684
2022-10-31 23:09:00+00:00,234.9581,12.6,12.49,47.84626,-54.09684
2022-10-31 23:19:00+00:00,231.9964,12.6,12.57,47.84626,-54.09684
2022-10-31 23:29:00+00:00,233.8098,12.6,12.57,47.84626,-54.09684
2022-10-31 23:39:00+00:00,235.8048,12.6,12.57,47.84626,-54.09684
2022-10-31 23:49:00+00:00,232.9931,12.6,12.57,47.84626,-54.09684
2022-10-31 23:59:00+00:00,231.4315,12.6,12.57,47.84626,-54.09684
